tititudorancea.com
Station Historical Data
Daily Summary for October 14, 2018 Units:  Metric    English   Both
« Previous Day
Next Day »
Daily Weekly Monthly Yearly Custom
  High: Low: Average:
Temperature: -17.8 °C 13.3 °C 18.9 °C
Dew Point: -17.8 °C 7.9 °C 10 °C
Humidity: Humidity % 37 % 58 %
Wind Speed: 0 km/h 0 km/h 20.4 km/h
Wind Gust: 0 km/h - -
Wind:- - NE
Pressure: 0 hPa 1012.8 hPa -
Precipitation: 0 mm    
Historical Graphs
 
 
Ararat weather Find more about Weather in Ararat, AU


 



 


Tabular Data for October 14, 2018
Time Temperature Dew Point Pressure Wind Wind Speed Wind Gust Humidity Rainfall Rate (Hourly)
-17.8 °C -17.8 °C 0 hPa Calm     Humidity % 0 mm
00:04 14.7 °C 8 °C 1018.2 hPa Calm     64 % 0 mm
00:09 14.5 °C 8 °C 1018.2 hPa NE 5.6 km/h 4.7 km/h 65 % 0 mm
00:14 14.4 °C 7.9 °C 1018.2 hPa NE 5.6 km/h 4.3 km/h 65 % 0 mm
00:19 14.4 °C 8.1 °C 1018.2 hPa NE 5.6 km/h 3.9 km/h 66 % 0 mm
00:24 14.4 °C 8.2 °C 1018.2 hPa NE 5.6 km/h 4.7 km/h 66 % 0 mm
00:29 14.6 °C 8.3 °C 1017.8 hPa NE 5.6 km/h 4.3 km/h 66 % 0 mm
00:34 14.7 °C 8.2 °C 1017.8 hPa NE 5.6 km/h 4 km/h 65 % 0 mm
00:39 14.6 °C 8.1 °C 1017.8 hPa NE 5.6 km/h 2.9 km/h 65 % 0 mm
00:44 14.4 °C 8.2 °C 1017.8 hPa NE 5.6 km/h 3.5 km/h 66 % 0 mm
00:49 14.3 °C 8 °C 1017.8 hPa NE 6.4 km/h 3.5 km/h 66 % 0 mm
00:54 14.2 °C 8.2 °C 1017.5 hPa NE 7.4 km/h 4.7 km/h 67 % 0 mm
00:59 14.2 °C 8.2 °C 1017.5 hPa NE 5.6 km/h 5.3 km/h 67 % 0 mm
01:04 14.2 °C 8.2 °C 1017.5 hPa NE 5.6 km/h 5.3 km/h 67 % 0 mm
01:09 14.2 °C 8.1 °C 1017.5 hPa NE 5.6 km/h 4.2 km/h 67 % 0 mm
01:14 14.1 °C 8.2 °C 1017.5 hPa NE 6.4 km/h 4.8 km/h 68 % 0 mm
01:19 13.9 °C 8.1 °C 1017.5 hPa NE 5.6 km/h 3.2 km/h 68 % 0 mm
01:24 13.8 °C 8 °C 1017.5 hPa NE 6.4 km/h 3.5 km/h 68 % 0 mm
01:29 13.7 °C 8.1 °C 1017.5 hPa NE 5.6 km/h 3.4 km/h 69 % 0 mm
01:34 13.5 °C 8.1 °C 1017.5 hPa NE 5.6 km/h 4 km/h 70 % 0 mm
01:39 13.4 °C 8.2 °C 1017.2 hPa NE 5.6 km/h 4.2 km/h 71 % 0 mm
01:44 13.3 °C 8.2 °C 1017.2 hPa NE 5.6 km/h 2.9 km/h 71 % 0 mm
01:49 13.3 °C 8.4 °C 1017.2 hPa NE 5.6 km/h 4.3 km/h 72 % 0 mm
01:54 13.4 °C 8.7 °C 1017.2 hPa NE 5.6 km/h 5.3 km/h 73 % 0 mm
01:59 13.6 °C 8.6 °C 1017.2 hPa NE 5.6 km/h 5.8 km/h 72 % 0 mm
02:04 13.6 °C 8.7 °C 1017.2 hPa NE 6.4 km/h 6.6 km/h 72 % 0 mm
02:09 13.7 °C 8.7 °C 1017.2 hPa NE 6.4 km/h 7.1 km/h 72 % 0 mm
02:14 13.7 °C 8.9 °C 1017.2 hPa NE 11.1 km/h 6.9 km/h 73 % 0 mm
02:19 13.8 °C 9 °C 1017.2 hPa NE 9.3 km/h 5.6 km/h 73 % 0 mm
02:24 13.8 °C 9.1 °C 1017.2 hPa NE 6.4 km/h 6 km/h 73 % 0 mm
02:29 13.9 °C 9.1 °C 1017.2 hPa NE 7.4 km/h 4.7 km/h 73 % 0 mm
02:34 14 °C 9.2 °C 1016.8 hPa NE 8 km/h 5.8 km/h 73 % 0 mm
02:39 14 °C 9.2 °C 1016.8 hPa NE 7.4 km/h 4.2 km/h 73 % 0 mm
02:44 14 °C 9.2 °C 1016.8 hPa NE 9.3 km/h 5.1 km/h 73 % 0 mm
02:49 13.9 °C 9.2 °C 1016.8 hPa NE 7.4 km/h 5.3 km/h 73 % 0 mm
02:54 13.9 °C 9.1 °C 1016.8 hPa NE 5.6 km/h 4.8 km/h 73 % 0 mm
02:59 13.7 °C 8.9 °C 1016.8 hPa NE 3.7 km/h 0.6 km/h 73 % 0 mm
03:04 13.6 °C 9.1 °C 1016.8 hPa NE 8 km/h 4.7 km/h 74 % 0 mm
03:09 13.4 °C 8.9 °C 1016.8 hPa NE 7.4 km/h 5.5 km/h 74 % 0 mm
03:14 13.4 °C 9.1 °C 1016.5 hPa NE 7.4 km/h 4.2 km/h 75 % 0 mm
03:19 13.4 °C 9.1 °C 1016.5 hPa NE 7.4 km/h 3.1 km/h 75 % 0 mm
03:24 13.4 °C 9.1 °C 1016.5 hPa NE 5.6 km/h 2.7 km/h 75 % 0 mm
03:29 13.4 °C 9.2 °C 1016.5 hPa NE 9.3 km/h 3.2 km/h 76 % 0 mm
03:34 13.4 °C 9.2 °C 1016.5 hPa NE 5.6 km/h 3.9 km/h 76 % 0 mm
03:39 13.4 °C 9.2 °C 1016.5 hPa NE 5.6 km/h 4.5 km/h 76 % 0 mm
03:44 13.3 °C 9.2 °C 1016.5 hPa NE 7.4 km/h 5.8 km/h 76 % 0 mm
03:49 13.3 °C 9.2 °C 1016.5 hPa NE 5.6 km/h 2.7 km/h 76 % 0 mm
03:54 13.3 °C 9.2 °C 1016.5 hPa NE 11.1 km/h 7.7 km/h 76 % 0 mm
03:59 13.4 °C 9.4 °C 1016.5 hPa NE 13 km/h 7.4 km/h 77 % 0 mm
04:04 13.3 °C 9.4 °C 1016.5 hPa NE 5.6 km/h 5.1 km/h 77 % 0 mm
04:09 13.3 °C 9.3 °C 1016.5 hPa NE 8 km/h 5.5 km/h 77 % 0 mm
04:14 13.3 °C 9.5 °C 1016.5 hPa NE 9.7 km/h 6.9 km/h 78 % 0 mm
04:19 13.3 °C 9.5 °C 1016.5 hPa NE 9.3 km/h 7.6 km/h 78 % 0 mm
04:24 13.3 °C 9.8 °C 1016.5 hPa NE 13 km/h 8.7 km/h 79 % 0 mm
04:29 13.3 °C 9.8 °C 1016.5 hPa NE 9.3 km/h 3.9 km/h 79 % 0 mm
04:34 13.4 °C 9.8 °C 1016.5 hPa NE 13 km/h 7.1 km/h 79 % 0 mm
04:39 13.4 °C 9.8 °C 1016.5 hPa NE 11.1 km/h 5.1 km/h 79 % 0 mm
04:44 13.3 °C 9.8 °C 1016.5 hPa NE 9.3 km/h 5.1 km/h 79 % 0 mm
04:49 13.3 °C 9.8 °C 1016.5 hPa NE 14.8 km/h 8.7 km/h 79 % 0 mm
04:54 13.3 °C 9.9 °C 1016.5 hPa NE 18.5 km/h 8.9 km/h 80 % 0 mm
04:59 13.3 °C 9.9 °C 1016.5 hPa NE 14.8 km/h 8 km/h 80 % 0 mm
05:04 13.3 °C 9.9 °C 1016.5 hPa NE 16.7 km/h 5.8 km/h 80 % 0 mm
05:09 13.4 °C 10 °C 1016.5 hPa NE 11.1 km/h 10.5 km/h 80 % 0 mm
05:14 13.4 °C 10 °C 1016.5 hPa NE 14.8 km/h 9 km/h 80 % 0 mm
05:19 13.4 °C 10 °C 1016.5 hPa NNE 9.3 km/h 7.9 km/h 80 % 0 mm
05:24 13.3 °C 9.9 °C 1016.5 hPa NNE 11.1 km/h 7.1 km/h 80 % 0 mm
05:29 13.3 °C 10.1 °C 1016.5 hPa NNE 9.3 km/h 6 km/h 81 % 0 mm
05:34 13.3 °C 10.2 °C 1016.5 hPa NNE 13 km/h 7.9 km/h 81 % 0 mm
05:39 13.4 °C 10.2 °C 1016.5 hPa NNE 12.9 km/h 8.7 km/h 81 % 0 mm
05:44 13.5 °C 10.3 °C 1016.5 hPa NNE 13 km/h 10.3 km/h 81 % 0 mm
05:49 13.7 °C 10.4 °C 1016.5 hPa NNE 13 km/h 8.2 km/h 81 % 0 mm
05:54 13.8 °C 10.4 °C 1016.5 hPa NNE 11.1 km/h 8 km/h 80 % 0 mm
05:59 13.9 °C 10.5 °C 1016.5 hPa NNE 14.8 km/h 10 km/h 80 % 0 mm
06:04 13.9 °C 10.3 °C 1016.5 hPa NNE 14.8 km/h 8.2 km/h 79 % 0 mm
06:09 13.9 °C 10.3 °C 1016.5 hPa NNE 11.3 km/h 10.1 km/h 79 % 0 mm
06:14 14 °C 10.4 °C 1016.5 hPa NNE 16.7 km/h 10.9 km/h 79 % 0 mm
06:19 14.1 °C 10.4 °C 1016.5 hPa NNE 14.8 km/h 8.2 km/h 79 % 0 mm
06:24 14.1 °C 10.3 °C 1016.5 hPa NNE 12.9 km/h 9 km/h 78 % 0 mm
06:29 14.1 °C 10.3 °C 1016.5 hPa NNE 8 km/h 7.1 km/h 78 % 0 mm
06:34 14.1 °C 10.3 °C 1016.5 hPa NNE 16.7 km/h 9.8 km/h 78 % 0 mm
06:39 14.1 °C 10.1 °C 1016.5 hPa NNE 13 km/h 5.5 km/h 77 % 0 mm
06:44 14.2 °C 10.2 °C 1016.8 hPa NNE 16.7 km/h 8.2 km/h 77 % 0 mm
06:49 14.3 °C 10.1 °C 1016.8 hPa NNE 22.5 km/h 11.7 km/h 76 % 0 mm
06:54 14.4 °C 10 °C 1016.8 hPa NNE 18.5 km/h 11.4 km/h 75 % 0 mm
06:59 14.5 °C 10.1 °C 1016.8 hPa NNE 14.8 km/h 14.8 km/h 75 % 0 mm
07:04 14.7 °C 9.9 °C 1016.8 hPa NNE 18.5 km/h 12.6 km/h 73 % 0 mm
07:09 15 °C 10 °C 1016.8 hPa NNE 25.9 km/h 17.5 km/h 72 % 0 mm
07:14 15.3 °C 10.1 °C 1016.8 hPa NNE 27.8 km/h 14.8 km/h 71 % 0 mm
07:19 15.4 °C 9.9 °C 1017.2 hPa NNE 29.6 km/h 15.3 km/h 70 % 0 mm
07:24 15.4 °C 10 °C 1017.2 hPa North 22.2 km/h 11.4 km/h 70 % 0 mm
07:29 15.4 °C 9.9 °C 1017.2 hPa NNE 18.5 km/h 12.1 km/h 70 % 0 mm
07:34 15.3 °C 9.9 °C 1017.2 hPa NNE 20.4 km/h 17.1 km/h 70 % 0 mm
07:39 15.3 °C 9.8 °C 1017.2 hPa NNE 20.4 km/h 15.3 km/h 70 % 0 mm
07:44 15.3 °C 9.8 °C 1017.2 hPa NE 31.5 km/h 9.2 km/h 70 % 0 mm
07:49 15.3 °C 9.9 °C 1017.2 hPa NNE 25.9 km/h 14.8 km/h 70 % 0 mm
07:54 15.3 °C 9.8 °C 1017.2 hPa NNE 20.4 km/h 15.8 km/h 70 % 0 mm
07:59 15.2 °C 10 °C 1017.2 hPa NNE 27.8 km/h 13.8 km/h 71 % 0 mm
08:04 15.3 °C 10.1 °C 1017.2 hPa NNE 20.4 km/h 16.1 km/h 71 % 0 mm
08:09 15.4 °C 10.2 °C 1017.2 hPa NNE 24.1 km/h 15.4 km/h 71 % 0 mm
08:14 15.7 °C 10.2 °C 1017.2 hPa NNE 18.5 km/h 11.4 km/h 70 % 0 mm
08:19 15.8 °C 10.3 °C 1017.2 hPa NE 25.9 km/h 14.2 km/h 70 % 0 mm
08:24 15.9 °C 10.3 °C 1017.2 hPa NNE 29.6 km/h 17.7 km/h 69 % 0 mm
08:29 16.1 °C 10.4 °C 1017.2 hPa NNE 27.8 km/h 13 km/h 69 % 0 mm
08:34 16.2 °C 10.4 °C 1017.5 hPa NNE 24.1 km/h 20.3 km/h 69 % 0 mm
08:39 16.3 °C 10.3 °C 1017.2 hPa NNE 29.6 km/h 21.2 km/h 68 % 0 mm
08:44 16.4 °C 10.5 °C 1017.2 hPa NNE 25.9 km/h 25.9 km/h 68 % 0 mm
08:49 16.6 °C 10.7 °C 1017.5 hPa NNE 29.6 km/h 18.3 km/h 68 % 0 mm
08:54 16.7 °C 10.8 °C 1017.5 hPa NNE 18.5 km/h 10.8 km/h 68 % 0 mm
08:59 16.9 °C 10.7 °C 1017.5 hPa NNE 33.3 km/h 16.3 km/h 67 % 0 mm
09:04 16.9 °C 10.7 °C 1017.5 hPa NNE 25.9 km/h 16.3 km/h 67 % 0 mm
09:09 17.1 °C 10.7 °C 1017.5 hPa North 37 km/h 22.4 km/h 66 % 0 mm
09:14 17.2 °C 10.8 °C 1017.5 hPa NNE 42.6 km/h 21.9 km/h 66 % 0 mm
09:19 17.3 °C 10.6 °C 1017.2 hPa North 31.5 km/h 23.5 km/h 65 % 0 mm
09:24 17.5 °C 10.8 °C 1017.5 hPa NNE 31.5 km/h 21.4 km/h 65 % 0 mm
09:29 17.7 °C 11.1 °C 1017.5 hPa NNE 27.8 km/h 18.3 km/h 65 % 0 mm
09:34 18 °C 11.1 °C 1017.5 hPa NNE 31.5 km/h 12.1 km/h 64 % 0 mm
09:39 18.2 °C 11 °C 1017.5 hPa NNE 31.5 km/h 16.1 km/h 63 % 0 mm
09:44 18.2 °C 10.8 °C 1017.5 hPa NNE 37 km/h 27.7 km/h 62 % 0 mm
09:49 18.3 °C 10.9 °C 1017.5 hPa North 38.9 km/h 26.9 km/h 62 % 0 mm
09:54 18.4 °C 10.7 °C 1017.5 hPa ENE 29.6 km/h 23.5 km/h 61 % 0 mm
09:59 18.4 °C 11 °C 1017.5 hPa NNE 30.6 km/h 22.2 km/h 62 % 0 mm
10:04 18.6 °C 10.9 °C 1017.5 hPa NNE 35.2 km/h 27.7 km/h 61 % 0 mm
10:09 18.7 °C 11 °C 1017.2 hPa NNE 25.9 km/h 18.5 km/h 61 % 0 mm
10:14 18.7 °C 10.8 °C 1017.2 hPa NNE 37 km/h 17.1 km/h 60 % 0 mm
10:19 18.8 °C 10.8 °C 1017.2 hPa NNE 31.5 km/h 20.4 km/h 60 % 0 mm
10:24 19 °C 10.8 °C 1017.2 hPa NNE 38.9 km/h 24.5 km/h 59 % 0 mm
10:29 19.2 °C 10.9 °C 1016.8 hPa NNE 27.8 km/h 18.8 km/h 59 % 0 mm
10:34 19.4 °C 10.9 °C 1016.8 hPa NNE 37 km/h 17.1 km/h 58 % 0 mm
10:39 19.6 °C 11.1 °C 1016.8 hPa North 37 km/h 22.2 km/h 58 % 0 mm
10:44 19.8 °C 11.3 °C 1016.8 hPa NNE 33.3 km/h 15.6 km/h 58 % 0 mm
10:49 20.1 °C 11.3 °C 1016.8 hPa NNE 35.2 km/h 26.7 km/h 57 % 0 mm
10:54 19.8 °C 10.8 °C 1016.5 hPa North 40.7 km/h 28.6 km/h 56 % 0 mm
10:59 19.8 °C 11.1 °C 1016.5 hPa NNE 37 km/h 24 km/h 57 % 0 mm
11:04 19.9 °C 11.1 °C 1016.5 hPa NNW 33.3 km/h 24.1 km/h 57 % 0 mm
11:09 20.2 °C 11.1 °C 1016.5 hPa North 25.9 km/h 19.6 km/h 56 % 0 mm
11:14 20.4 °C 11.3 °C 1016.5 hPa NNE 35.2 km/h 23.5 km/h 56 % 0 mm
11:19 20.3 °C 11.2 °C 1016.1 hPa NNE 31.5 km/h 17.7 km/h 56 % 0 mm
11:24 20.3 °C 11.3 °C 1015.8 hPa NE 33.3 km/h 26.7 km/h 56 % 0 mm
11:29 20.8 °C 11.4 °C 1016.1 hPa NE 33.3 km/h 16.3 km/h 55 % 0 mm
11:34 20.7 °C 11.1 °C 1016.1 hPa NNE 37 km/h 24.6 km/h 54 % 0 mm
11:39 20.7 °C 11 °C 1016.1 hPa NNE 24.1 km/h 23 km/h 54 % 0 mm
11:44 20.6 °C 11 °C 1015.8 hPa NNE 38.9 km/h 21.6 km/h 54 % 0 mm
11:49 20.9 °C 11.3 °C 1016.1 hPa North 31.5 km/h 21.1 km/h 54 % 0 mm
11:54 21.2 °C 11.5 °C 1015.8 hPa NNE 27.8 km/h 13.8 km/h 54 % 0 mm
11:59 21.5 °C 11.8 °C 1015.8 hPa North 25.9 km/h 17.2 km/h 54 % 0 mm
12:04 21.6 °C 11.6 °C 1015.8 hPa NE 25.9 km/h 20.6 km/h 53 % 0 mm
12:09 21.4 °C 11.2 °C 1015.8 hPa NNE 31.5 km/h 19.3 km/h 52 % 0 mm
12:14 21.3 °C 11.1 °C 1015.8 hPa North 27.8 km/h 22.2 km/h 52 % 0 mm
12:19 21.2 °C 11.3 °C 1015.8 hPa NNE 30.6 km/h 20.8 km/h 53 % 0 mm
12:24 21.3 °C 11 °C 1015.8 hPa North 31.5 km/h 18.7 km/h 52 % 0 mm
12:29 21.3 °C 11 °C 1015.5 hPa North 25.9 km/h 15 km/h 52 % 0 mm
12:34 21.6 °C 11.3 °C 1015.5 hPa North 29.6 km/h 16.6 km/h 52 % 0 mm
12:39 21.7 °C 11.1 °C 1015.5 hPa North 31.5 km/h 24.1 km/h 51 % 0 mm
12:44 21.6 °C 11.1 °C 1015.5 hPa NE 29.6 km/h 14.6 km/h 51 % 0 mm
12:49 21.4 °C 11.1 °C 1015.1 hPa NNE 31.5 km/h 26.4 km/h 52 % 0 mm
12:54 21.4 °C 11.4 °C 1015.1 hPa NNE 29.6 km/h 19.2 km/h 53 % 0 mm
12:59 21.8 °C 11.2 °C 1015.1 hPa NNE 37 km/h 22.5 km/h 51 % 0 mm
13:04 22.2 °C 11.6 °C 1015.1 hPa North 31.5 km/h 25.3 km/h 51 % 0 mm
13:09 22.4 °C 11.8 °C 1015.1 hPa NE 31.5 km/h 13 km/h 51 % 0 mm
13:14 22.8 °C 11.2 °C 1015.1 hPa North 33.3 km/h 23.3 km/h 48 % 0 mm
13:19 22.8 °C 11.2 °C 1014.8 hPa NE 35.2 km/h 27.2 km/h 48 % 0 mm
13:24 23.1 °C 11.2 °C 1015.1 hPa NNE 35.2 km/h 24.1 km/h 47 % 0 mm
13:29 23.2 °C 11.2 °C 1014.8 hPa NNE 31.5 km/h 25.3 km/h 47 % 0 mm
13:34 23.2 °C 11.2 °C 1015.1 hPa North 35.2 km/h 19 km/h 47 % 0 mm
13:39 23 °C 11.4 °C 1015.1 hPa NNE 25.9 km/h 21.9 km/h 48 % 0 mm
13:44 22.7 °C 11.1 °C 1014.8 hPa North 44.4 km/h 24.8 km/h 48 % 0 mm
13:49 22.7 °C 11.2 °C 1014.8 hPa NNE 38.9 km/h 18.3 km/h 48 % 0 mm
13:54 22.6 °C 10.7 °C 1014.8 hPa North 35.2 km/h 24.9 km/h 47 % 0 mm
13:59 22.6 °C 11 °C 1014.8 hPa NNE 40.2 km/h 28.5 km/h 48 % 0 mm
14:04 22.6 °C 11.1 °C 1014.4 hPa North 30.6 km/h 23.7 km/h 48 % 0 mm
14:09 22.7 °C 11.1 °C 1014.4 hPa NNE 27.8 km/h 21.7 km/h 48 % 0 mm
14:14 22.7 °C 11.1 °C 1014.4 hPa North 31.5 km/h 23.3 km/h 48 % 0 mm
14:19 22.9 °C 11.3 °C 1014.4 hPa NE 25.9 km/h 11.7 km/h 48 % 0 mm
14:24 23.4 °C 10.8 °C 1014.4 hPa NE 31.5 km/h 29.1 km/h 45 % 0 mm
14:29 23.7 °C 11.1 °C 1014.4 hPa NNE 33.3 km/h 22.7 km/h 45 % 0 mm
14:34 23.8 °C 10.4 °C 1014.4 hPa NNE 33.3 km/h 29.1 km/h 43 % 0 mm
14:39 23.6 °C 10.9 °C 1014.4 hPa NNE 29.6 km/h 18.8 km/h 45 % 0 mm
14:44 23.7 °C 11.1 °C 1014.4 hPa North 22.5 km/h 17.4 km/h 45 % 0 mm
14:49 23.6 °C 11.3 °C 1014.1 hPa NNE 22.2 km/h 10.9 km/h 46 % 0 mm
14:54 23.7 °C 11.1 °C 1014.1 hPa North 33.3 km/h 28.3 km/h 45 % 0 mm
14:59 24 °C 11.3 °C 1014.1 hPa NNE 25.7 km/h 20.4 km/h 45 % 0 mm
15:04 24.1 °C 11.4 °C 1014.1 hPa NE 18.5 km/h 19.8 km/h 45 % 0 mm
15:09 23.8 °C 11.1 °C 1014.1 hPa NNE 25.9 km/h 18.7 km/h 45 % 0 mm
15:14 23.6 °C 11 °C 1013.8 hPa NNE 42.6 km/h 23.3 km/h 45 % 0 mm
15:19 23.6 °C 11.3 °C 1013.8 hPa NNE 38.9 km/h 16.9 km/h 46 % 0 mm
15:24 23.7 °C 10.7 °C 1013.8 hPa NNE 24.1 km/h 19.6 km/h 44 % 0 mm
15:29 23.9 °C 10.2 °C 1013.8 hPa NNE 25.9 km/h 21.6 km/h 42 % 0 mm
15:34 23.8 °C 10.1 °C 1013.8 hPa NNE 29.6 km/h 19 km/h 42 % 0 mm
15:39 23.8 °C 10.5 °C 1013.8 hPa NE 31.5 km/h 18.5 km/h 43 % 0 mm
15:44 23.8 °C 10.5 °C 1013.8 hPa NE 35.2 km/h 18 km/h 43 % 0 mm
15:49 23.8 °C 10.5 °C 1013.8 hPa North 22.2 km/h 20.6 km/h 43 % 0 mm
15:54 23.9 °C 10.6 °C 1013.4 hPa NNE 38.9 km/h 20 km/h 43 % 0 mm
15:59 23.8 °C 10.5 °C 1013.4 hPa NNE 29.6 km/h 17.9 km/h 43 % 0 mm
16:04 23.9 °C 10.6 °C 1013.4 hPa NNE 29 km/h 19.2 km/h 43 % 0 mm
16:09 24.1 °C 10.7 °C 1013.4 hPa NNE 24.1 km/h 18 km/h 43 % 0 mm
16:14 24.2 °C 10.8 °C 1013.1 hPa NE 20.4 km/h 13.5 km/h 43 % 0 mm
16:19 24.7 °C 10.6 °C 1013.1 hPa NNE 24.1 km/h 17.7 km/h 41 % 0 mm
16:24 25 °C 10.8 °C 1013.1 hPa NE 16.7 km/h 19.3 km/h 41 % 0 mm
16:29 25 °C 10.4 °C 1012.8 hPa NNE 27.8 km/h 13 km/h 40 % 0 mm
16:34 24.7 °C 9.8 °C 1012.8 hPa NNE 40.7 km/h 23.5 km/h 39 % 0 mm
16:39 24.4 °C 10.7 °C 1012.8 hPa NNE 18.5 km/h 11.4 km/h 42 % 0 mm
16:44 24.4 °C 10.7 °C 1012.8 hPa NNE 16.7 km/h 13.2 km/h 42 % 0 mm
16:49 24.7 °C 10.6 °C 1012.8 hPa NNE 25.9 km/h 11.7 km/h 41 % 0 mm
16:54 25 °C 10.4 °C 1012.8 hPa NNE 18.5 km/h 17.7 km/h 40 % 0 mm
16:59 24.9 °C 10 °C 1012.8 hPa North 24.1 km/h 19 km/h 39 % 0 mm
17:04 24.6 °C 10.1 °C 1012.8 hPa NNE 24.1 km/h 12.4 km/h 40 % 0 mm
17:09 24.3 °C 9.9 °C 1012.8 hPa NNE 33.8 km/h 20.9 km/h 40 % 0 mm
17:14 24.6 °C 10.5 °C 1012.8 hPa North 22.2 km/h 15.1 km/h 41 % 0 mm
17:19 24.8 °C 10.6 °C 1012.8 hPa North 20.9 km/h 14 km/h 41 % 0 mm
17:24 24.8 °C 9.1 °C 1012.8 hPa North 35.2 km/h 24.1 km/h 37 % 0 mm
17:29 24.4 °C 9.2 °C 1012.8 hPa North 33.3 km/h 26.1 km/h 38 % 0 mm
17:34 24.3 °C 9.4 °C 1012.8 hPa NNE 33.3 km/h 19.2 km/h 39 % 0 mm
17:39 24.2 °C 9.4 °C 1012.8 hPa NNE 35.2 km/h 21.7 km/h 39 % 0 mm
17:44 24.2 °C 9.8 °C 1012.8 hPa NNE 18.5 km/h 11.9 km/h 40 % 0 mm
17:49 24.2 °C 9.7 °C 1012.8 hPa NNE 24.1 km/h 16.9 km/h 40 % 0 mm
17:54 24.1 °C 9.7 °C 1012.8 hPa NNE 20.4 km/h 7.9 km/h 40 % 0 mm
17:59 23.9 °C 9.5 °C 1012.8 hPa NNE 20.4 km/h 12.6 km/h 40 % 0 mm
18:04 23.8 °C 9.7 °C 1012.8 hPa NE 25.9 km/h 11.6 km/h 41 % 0 mm
18:09 23.7 °C 9.7 °C 1012.8 hPa NNE 27.8 km/h 18 km/h 41 % 0 mm
18:14 23.8 °C 9.7 °C 1012.8 hPa NNE 31.5 km/h 16.7 km/h 41 % 0 mm
18:19 23.7 °C 10.1 °C 1012.8 hPa NNE 27.8 km/h 12.4 km/h 42 % 0 mm
18:24 23.7 °C 10 °C 1012.8 hPa NE 18.5 km/h 11.7 km/h 42 % 0 mm
18:29 23.6 °C 10.3 °C 1012.8 hPa NNE 9.3 km/h 9 km/h 43 % 0 mm
18:34 23.5 °C 10.2 °C 1012.8 hPa NE 11.1 km/h 4.8 km/h 43 % 0 mm
18:39 23.4 °C 10.2 °C 1012.8 hPa NE 31.5 km/h 15.1 km/h 43 % 0 mm
18:44 23.4 °C 10.1 °C 1013.1 hPa NNE 18.5 km/h 7.1 km/h 43 % 0 mm
18:49 23.3 °C 10.4 °C 1013.1 hPa NNE 18.5 km/h 9.5 km/h 44 % 0 mm
18:54 23.3 °C 10.3 °C 1013.1 hPa NNE 17.7 km/h 9.2 km/h 44 % 0 mm
18:59 23.2 °C 10.2 °C 1013.1 hPa NNE 16.7 km/h 10.5 km/h 44 % 0 mm
19:04 23.1 °C 10.1 °C 1013.1 hPa NNE 17.7 km/h 9.5 km/h 44 % 0 mm
19:09 22.9 °C 10.1 °C 1013.1 hPa NNE 18.5 km/h 12.7 km/h 44 % 0 mm
19:14 22.8 °C 10.3 °C 1013.1 hPa NE 18.5 km/h 11.6 km/h 45 % 0 mm
19:19 22.8 °C 10.2 °C 1013.1 hPa NNE 16.7 km/h 8.9 km/h 45 % 0 mm
19:24 22.7 °C 10.2 °C 1013.1 hPa NNE 13 km/h 7.4 km/h 45 % 0 mm
19:29 22.5 °C 10.3 °C 1013.1 hPa NNE 11.3 km/h 8.4 km/h 46 % 0 mm
19:34 22.4 °C 10.2 °C 1012.8 hPa NNE 14.8 km/h 8.5 km/h 46 % 0 mm
19:39 22.3 °C 10.1 °C 1013.1 hPa NE 9.3 km/h 8.2 km/h 46 % 0 mm
19:44 22.1 °C 10.3 °C 1013.1 hPa NE 9.3 km/h 5.6 km/h 47 % 0 mm
19:49 22 °C 10.2 °C 1013.1 hPa NE 9.3 km/h 7.7 km/h 47 % 0 mm
19:54 21.8 °C 10 °C 1013.1 hPa NE 7.4 km/h 4.8 km/h 47 % 0 mm
19:59 21.7 °C 10.2 °C 1013.4 hPa NE 8 km/h 4.5 km/h 48 % 0 mm
20:04 21.6 °C 9.8 °C 1013.4 hPa NE 14.8 km/h 7.9 km/h 47 % 0 mm
20:09 21.5 °C 10 °C 1013.4 hPa NE 9.3 km/h 7.9 km/h 48 % 0 mm
20:14 21.4 °C 9.9 °C 1013.4 hPa NE 8 km/h 4.8 km/h 48 % 0 mm
20:19 21.3 °C 9.8 °C 1013.4 hPa NE 8 km/h 5 km/h 48 % 0 mm
20:24 21.3 °C 9.8 °C 1013.4 hPa NE 7.4 km/h 5 km/h 48 % 0 mm
20:29 21.2 °C 9.8 °C 1013.8 hPa NE 11.1 km/h 6.8 km/h 48 % 0 mm
20:34 21.3 °C 9.8 °C 1013.8 hPa NE 7.4 km/h 5.8 km/h 48 % 0 mm
20:39 21.4 °C 9.6 °C 1013.8 hPa NE 14.8 km/h 10.8 km/h 47 % 0 mm
20:44 21.5 °C 9.7 °C 1013.8 hPa NE 16.7 km/h 10.1 km/h 47 % 0 mm
20:49 21.5 °C 9.7 °C 1013.8 hPa ENE 16.7 km/h 6.1 km/h 47 % 0 mm
20:54 21.4 °C 10 °C 1013.8 hPa NE 16.1 km/h 6.9 km/h 48 % 0 mm
20:59 21.4 °C 10 °C 1014.1 hPa NE 18.5 km/h 10.9 km/h 48 % 0 mm
21:04 21.5 °C 10 °C 1014.1 hPa NNE 14.8 km/h 9.2 km/h 48 % 0 mm
21:09 21.4 °C 10 °C 1014.1 hPa NNE 16.7 km/h 9.5 km/h 48 % 0 mm
21:14 21.4 °C 9.9 °C 1014.1 hPa NE 18.5 km/h 10.5 km/h 48 % 0 mm
21:19 21.4 °C 9.9 °C 1014.1 hPa ENE 17.7 km/h 10.5 km/h 48 % 0 mm
21:24 21.4 °C 9.9 °C 1014.1 hPa NNE 20.4 km/h 11.7 km/h 48 % 0 mm
21:29 21.4 °C 9.9 °C 1014.4 hPa NE 13 km/h 8.7 km/h 48 % 0 mm
21:34 21.3 °C 9.9 °C 1014.4 hPa NE 12.9 km/h 10.1 km/h 48 % 0 mm
21:39 21.3 °C 9.8 °C 1014.4 hPa NE 11.3 km/h 9.2 km/h 48 % 0 mm
21:44 21.4 °C 10 °C 1014.4 hPa NNE 22.2 km/h 15.6 km/h 48 % 0 mm
21:49 21.6 °C 9.8 °C 1014.4 hPa NNE 27.8 km/h 10 km/h 47 % 0 mm
21:54 21.6 °C 9.8 °C 1014.4 hPa NE 16.7 km/h 9.3 km/h 47 % 0 mm
21:59 21.6 °C 9.8 °C 1014.4 hPa NNE 18.5 km/h 9 km/h 47 % 0 mm
22:04 21.6 °C 9.8 °C 1014.4 hPa NNE 14.8 km/h 9.2 km/h 47 % 0 mm
22:09 21.6 °C 9.8 °C 1014.8 hPa NE 17.7 km/h 11.9 km/h 47 % 0 mm
22:14 21.6 °C 9.8 °C 1014.8 hPa NNE 18.5 km/h 16.3 km/h 47 % 0 mm
22:19 21.6 °C 9.5 °C 1014.8 hPa NNE 22.2 km/h 13.7 km/h 46 % 0 mm
22:24 21.6 °C 9.8 °C 1014.8 hPa NE 19.3 km/h 10.5 km/h 47 % 0 mm
22:29 21.5 °C 9.7 °C 1014.8 hPa NNE 17.7 km/h 10.9 km/h 47 % 0 mm
22:34 21.4 °C 9.7 °C 1014.8 hPa NNE 19.3 km/h 12.7 km/h 47 % 0 mm
22:39 21.3 °C 9.6 °C 1014.8 hPa NNE 18.5 km/h 8.5 km/h 47 % 0 mm
22:44 21.3 °C 9.8 °C 1014.8 hPa NE 14.8 km/h 11.3 km/h 48 % 0 mm
22:49 21.2 °C 9.8 °C 1014.8 hPa NE 16.7 km/h 10.8 km/h 48 % 0 mm
22:54 21.2 °C 9.7 °C 1014.8 hPa NE 18.5 km/h 9.5 km/h 48 % 0 mm
22:59 21.2 °C 9.7 °C 1014.8 hPa NE 20.4 km/h 10.3 km/h 48 % 0 mm
23:04 21.2 °C 9.7 °C 1014.8 hPa NE 14.8 km/h 13.2 km/h 48 % 0 mm
23:09 21.2 °C 9.8 °C 1014.8 hPa NNE 14.8 km/h 13.4 km/h 48 % 0 mm
23:14 21.3 °C 9.5 °C 1014.8 hPa NNE 25.9 km/h 17.7 km/h 47 % 0 mm
23:19 21.3 °C 9.5 °C 1014.8 hPa NNE 18.5 km/h 13.4 km/h 47 % 0 mm
23:24 21.3 °C 9.5 °C 1014.8 hPa NNE 31.5 km/h 15.3 km/h 47 % 0 mm
23:29 21.2 °C 9.4 °C 1014.8 hPa NNE 20.4 km/h 12.1 km/h 47 % 0 mm
23:34 21.3 °C 9.5 °C 1014.8 hPa NE 24.1 km/h 13.2 km/h 47 % 0 mm
23:39 21.3 °C 9.6 °C 1014.8 hPa NNE 20.4 km/h 10.3 km/h 47 % 0 mm
23:44 21.3 °C 9.5 °C 1014.8 hPa NNE 20.9 km/h 19.2 km/h 47 % 0 mm
23:49 21.3 °C 9.6 °C 1014.8 hPa NE 27.8 km/h 13.7 km/h 47 % 0 mm
23:54 21.3 °C 9.2 °C 1014.8 hPa NNE 18.5 km/h 16.7 km/h 46 % 0 mm
23:59 21.4 °C 9.3 °C 1014.8 hPa NE 22.2 km/h 18.3 km/h 46 % 0 mm
Ararat Weather
Compliments of Weather Underground - 2.25 mb
Click here to send mail.


ABOUT

Live weather data from Ararat, Victoria, Australia, 3377
Data uploaded from Cumulus every 5 minutes to Weather Underground.
This site then downloads the raw data for formatting and display.
Metric and imperial data can be displayed. Graphs and historical data available.
Includes Sun and Moon times and rain image live from BOM.

Check out Ararat Weather on Facebook, Twitter and Google +

Help support ongoing costs by checking out the ads





Follow @AraratWeather